| time (UTC) | temp F | wind direction | speed MPH | gust MPH | rain 1hr in | rain 24hr in | rain mn in | humidity % | barometer mb |
| 20260504025112 | 71 | 91 | 0.0 | 10.0 | 0.00 | 0.00 | 0.00 | 43 | 1007.0 |
| 20260504022113 | 72 | 52 | 0.0 | 10.0 | 0.00 | 0.00 | 0.00 | 41 | 1006.9 |
| 20260504015113 | 73 | 37 | 0.0 | 10.0 | 0.00 | 0.00 | 0.00 | 38 | 1006.7 |
| 20260504012114 | 75 | 60 | 0.0 | 10.0 | 0.00 | 0.00 | 0.00 | 35 | 1006.6 |
| 20260504002113 | 79 | 41 | 0.0 | 10.0 | 0.00 | 0.00 | 0.00 | 31 | 1006.8 |
| 20260503235113 | 80 | 58 | 0.0 | 10.0 | 0.00 | 0.00 | 0.00 | 30 | 1007.1 |
| 20260503232115 | 82 | 49 | 4.0 | 10.0 | 0.00 | 0.00 | 0.00 | 29 | 1007.2 |
| 20260503225113 | 84 | 26 | 1.0 | 10.0 | 0.00 | 0.00 | 0.00 | 27 | 1007.3 |
| 20260503222114 | 84 | 85 | 1.0 | 10.0 | 0.00 | 0.00 | 0.00 | 28 | 1007.5 |
| 20260503215112 | 85 | 53 | 0.0 | 10.0 | 0.00 | 0.00 | 0.00 | 28 | 1007.8 |
| 20260503212113 | 86 | 312 | 1.0 | 10.0 | 0.00 | 0.00 | 0.00 | 26 | 1008.2 |
| 20260503205114 | 85 | 70 | 0.0 | 10.0 | 0.00 | 0.00 | 0.00 | 29 | 1008.7 |
| 20260503202113 | 86 | 54 | 3.0 | 10.0 | 0.00 | 0.00 | 0.00 | 28 | 1009.2 |
| 20260503192114 | 85 | 102 | 1.0 | 10.0 | 0.00 | 0.00 | 0.00 | 28 | 1010.2 |
| 20260503185112 | 85 | 52 | 6.0 | 10.0 | 0.00 | 0.00 | 0.00 | 28 | 1010.7 |
| 20260503182113 | 84 | 42 | 2.0 | 10.0 | 0.00 | 0.00 | 0.00 | 31 | 1011.0 |
| 20260503175113 | 83 | 307 | 2.0 | 10.0 | 0.00 | 0.00 | 0.00 | 33 | 1011.6 |
| 20260503172114 | 82 | 41 | 0.0 | 10.0 | 0.00 | 0.00 | 0.00 | 36 | 1012.1 |
| 20260503072113 | 58 | 268 | 1.0 | 10.0 | 0.00 | 0.00 | 0.00 | 64 | 1014.5 |
| 20260503055112 | 59 | 241 | 0.0 | 10.0 | 0.00 | 0.00 | 0.00 | 60 | 1015.0 |
| 20260503052113 | 59 | 258 | 3.0 | 10.0 | 0.00 | 0.00 | 0.00 | 58 | 1015.1 |
| 20260503045113 | 59 | 220 | 0.0 | 10.0 | 0.00 | 0.00 | 0.00 | 56 | 1014.8 |
| 20260503042117 | 60 | 308 | 0.0 | 10.0 | 0.00 | 0.00 | 0.00 | 60 | 1014.7 |
| 20260503035112 | 60 | 298 | 0.0 | 10.0 | 0.00 | 0.00 | 0.00 | 59 | 1014.8 |
| 20260503032113 | 61 | 201 | 0.0 | 10.0 | 0.00 | 0.00 | 0.00 | 58 | 1014.7 |